Location: Unspecified
(0.0000°N, 0.0000°E)
Time: 11:43:47
(UTC+00:00)

A-11 Canister half - Pass Details

Date: 22 November 2019
Orbit: 1515 x 1685 km, 47.2° (Epoch: 08 December)

Event Time Altitude Azimuth Distance (km) Brightness Sun altitude
Rises 01:44:43 0° 322° (NW) 4,868 - -54.7°
Reaches altitude 10° 01:47:53 10° 323° (NW) 3,862 - -54.1°
Maximum altitude 01:57:45 83° 51° (NE) 1,603 - -52.0°
Exits shadow 02:02:46 33° 136° (SE) 2,397 10.2 -51.0°
Drops below altitude 10° 02:07:15 10° 138° (SE) 3,735 11.5 -50.0°
Sets 02:10:16 0° 138° (SE) 4,702 12.2 -49.4°
